Погода в Остраве

Чехия     49°50′10″N   18°16′40″E
темп.,
°C
ветер,
м/с
пор.,
м/с
влажн.,
%
обл.,
%
осадки,
мм/ч
давл.,
гПа
погр.,
м
20 сентября, пн
пн2023:00+10ссв2571100 0.0 1017292
02:00+10с2571100 0.0 1017276
05:00+10с3576100 0.0 1017443
08:00+9с3583100 0.1 1018475
11:00+10с3581100 0.4 1019624
14:00+13с355866 0.6 10191542
17:00+11ссв3563100 0.0 1020565
20:00+10св3568100 0.1 1022231
21 сентября, вт
вт2123:00+7св348021 0.0 1024104
02:00+5ссв11855 0.0 102520
05:00+4в01863 0.0 102515
08:00+6юз007999 0.0 102795
11:00+11с13615 0.0 1027792
14:00+14с345096 0.0 10261740
17:00+13ссз5654100 0.0 1026685
20:00+11сз2261100 0.0 102775
22 сентября, ср
ср2223:00+9зсз1165100 0.0 102742
02:00+9юз2265100 0.0 102647
05:00+9юз2269100 0.1 102592
08:00+8сз4993100 3.1 1025758
11:00+8ссз3791100 2.0 1025672
14:00+9ссз3889100 2.4 1025629
17:00+8с1691100 0.4 1024462
20:00+8ю1294100 1.1 1024101
23 сентября, чт
чт2323:00+8ююз2391100 0.2 1023109
02:00+8ююз2391100 0.5 1022115
05:00+7юз359260 0.1 102179
08:00+8юз368977 0.1 1020168
11:00+11юз577832 0.0 1019369
14:00+16юз6859100 0.0 10161191
17:00+17юз4962100 0.0 1013464
20:00+13юз4969100 0.0 1012160
24 сентября, пт
пт2423:00+12юз4972100 0.0 1012205
02:00+12юз61370100 0.0 1011453
05:00+11юз61374100 0.0 1010413
08:00+12юз6127573 0.0 1011605
11:00+15зюз7126995 0.0 1010949
14:00+17з7116696 0.0 10111058
17:00+16з597084 0.1 1011567
20:00+15юз41076100 0.1 1011287